Theta_e
307 307 307 308 307 305 302 290 287 299 296 286 280 278 286 292 290 294 292 290 288 285 285 283 283 283 287 292 291 286 288 283 280 283 287 290 286 284 284 278 278 279 278 279
308 307 307 307 307 305 300 292 291 298 294 277 277 284 287 290 290 290 290 289 290 290 286 282 285 287 292 292 289 286 287 281 277 278 284 287 284 287 285 284 283 278 277 280
309 308 307 308 307 306 300 293 284 288 287 286 282 286 286 286 293 291 292 289 291 288 285 287 284 285 290 292 291 296 291 281 279 274 279 284 282 285 286 285 279 280 281 284
308 308 308 308 307 306 295 288 284 288 280 281 283 288 287 286 287 292 292 288 289 288 283 285 284 287 288 291 293 289 286 281 281 283 285 286 285 285 286 284 286 282 284 285
308 307 307 308 308 304 292 282 284 287 283 285 283 285 283 287 288 288 288 287 289 289 286 286 284 287 288 287 291 288 288 281 283 282 285 286 284 285 285 286 286 286 288 287
308 307 307 307 308 302 294 293 289 287 284 282 279 281 286 286 289 290 292 291 289 288 289 293 292 292 291 291 288 286 286 285 281 276 284 283 278 282 284 285 289 288 284 289
308 307 307 307 308 304 299 295 293 288 281 282 282 285 286 285 288 287 291 291 290 293 296 293 293 291 291 290 291 291 287 285 281 276 277 269 282 291 293 289 290 291 291 293
305 305 306 307 308 308 300 298 294 290 284 285 286 286 287 286 288 289 291 291 294 294 289 286 284 283 288 289 290 290 290 286 281 274 275 282 285 291 291 289 289 295 292 294
304 304 305 305 307 307 304 299 299 293 287 285 289 285 285 282 286 289 291 294 293 290 283 284 279 276 284 283 286 288 290 288 283 280 276 274 286 292 295 295 285 301 302 302
304 304 305 305 306 307 305 300 299 295 288 290 287 287 283 287 287 287 291 292 289 288 281 280 280 279 287 281 283 284 284 284 280 280 278 281 291 292 293 285 286 301 302 301
303 303 304 305 306 306 304 302 300 296 290 291 293 293 289 288 289 286 290 287 285 285 282 282 281 281 284 285 287 284 284 282 281 282 279 277 291 289 288 295 301 302 303 304
303 303 303 304 306 306 305 296 301 301 293 292 297 297 298 296 294 291 292 291 291 289 285 282 285 284 285 286 281 290 283 285 283 284 284 290 291 290 294 295 295 303 303 305
302 302 303 303 304 305 305 299 301 297 293 292 287 289 294 296 296 297 289 288 292 292 294 289 288 284 288 283 285 286 289 290 284 285 289 290 293 295 302 303 303 305 306 308
301 302 303 304 304 305 305 300 302 298 294 286 287 295 293 298 296 294 296 293 294 294 294 289 288 286 292 288 289 289 291 292 289 288 292 294 294 298 301 302 304 303 304 306
300 301 302 302 303 303 303 301 302 301 294 287 287 292 294 297 297 296 296 295 293 292 290 289 288 289 292 294 291 287 293 291 288 288 295 294 296 300 303 299 302 303 303 303
300 301 301 302 303 304 300 293 300 302 299 289 285 292 293 295 298 298 297 296 295 294 292 291 291 292 294 288 284 289 292 295 296 294 298 299 300 302 304 301 302 303 302 303
301 302 302 303 303 302 296 293 299 302 300 290 288 285 292 299 296 299 297 296 296 295 295 293 287 291 296 289 282 290 293 295 297 299 298 296 298 297 301 302 302 303 302 302
303 303 304 304 306 303 298 301 303 302 296 296 289 284 287 298 293 293 298 295 296 296 295 292 289 288 288 284 289 293 294 296 297 297 299 297 299 298 298 299 300 299 298 299
301 303 305 301 298 296 300 307 307 303 297 291 288 283 280 293 295 298 295 296 292 295 293 289 290 284 282 287 290 291 293 293 294 297 297 297 297 296 296 296 297 297 297 298
300 296 297 296 297 304 304 302 298 295 296 296 291 292 283 289 288 288 289 291 289 287 289 292 285 282 289 292 294 293 295 295 296 293 292 294 295 295 294 295 296 296 297 298
288 285 290 294 300 297 295 291 291 290 287 290 290 290 286 291 285 285 292 287 284 284 288 289 281 281 288 294 294 295 295 296 297 297 295 295 295 296 294 294 295 295 295 296
289 290 294 295 293 288 286 286 291 288 285 290 290 290 289 289 291 287 289 283 283 282 288 286 281 286 291 294 295 294 296 296 297 297 296 296 298 297 295 295 294 295 295 295
291 293 290 290 289 283 283 280 285 288 294 296 296 293 294 290 292 286 283 281 280 285 278 281 284 290 294 294 295 294 294 297 297 298 298 298 297 297 296 295 295 294 294 294
286 287 283 284 282 283 282 284 287 295 296 295 295 293 293 293 290 286 283 284 283 276 276 280 285 291 294 295 296 295 295 296 297 297 298 297 296 295 295 295 295 294 292 293
283 285 280 282 286 286 290 294 293 295 296 296 291 294 294 290 290 288 283 282 277 277 277 280 288 293 296 296 296 295 295 296 298 298 297 296 296 295 295 295 294 294 293 292
285 284 283 286 286 285 286 287 287 291 290 290 293 291 289 287 288 284 284 279 275 278 281 286 290 293 296 296 297 297 298 296 295 297 298 296 296 295 294 295 294 293 292 291
284 283 286 286 285 285 286 287 288 288 288 286 288 286 285 290 285 283 283 279 282 285 287 289 292 294 295 297 299 299 298 297 295 296 296 296 296 296 294 292 292 292 292 291
Wind_Speed
22 23 24 24 23 24 6 3 2 3 3 5 1 1 5 6 7 1 5 5 8 7 4 5 4 6 3 4 3 5 1 1 4 6 5 5 2 3 1 4 8 5 4 9
18 21 19 23 22 21 4 3 4 4 4 3 3 5 6 5 4 5 3 4 3 3 4 6 5 6 4 7 2 4 2 1 4 5 3 6 2 3 3 1 0 6 4 8
17 18 18 18 21 20 2 2 5 5 5 1 2 4 7 5 5 6 3 5 5 3 5 7 7 8 7 3 2 8 0 2 5 5 3 3 4 8 8 3 4 5 10 10
16 17 18 17 19 20 2 4 1 1 5 4 5 4 5 8 6 3 3 3 4 9 7 12 15 13 7 8 5 1 5 4 3 8 11 8 8 13 13 16 12 9 3 2
16 16 17 17 14 16 4 2 3 4 4 5 4 5 4 8 8 5 10 7 15 13 13 14 21 19 8 9 5 7 6 4 2 11 10 12 14 17 16 16 19 17 14 16
15 14 16 16 12 5 2 1 1 2 4 4 2 4 4 8 14 7 9 15 17 15 18 13 19 20 21 13 5 6 6 2 1 5 5 4 12 17 23 18 14 13 14 12
16 16 15 16 14 2 2 1 1 1 5 3 4 6 13 16 10 13 13 12 11 8 15 18 14 11 13 13 15 11 3 6 3 4 2 4 7 10 12 15 11 15 7 15
18 17 16 16 14 8 2 2 2 2 5 5 12 6 5 11 10 14 12 14 9 10 7 6 8 4 2 2 6 13 14 4 2 3 4 10 12 2 5 5 5 10 15 16
18 17 16 17 14 11 2 3 3 2 3 5 5 9 5 5 6 5 5 9 5 4 3 3 4 3 4 3 3 6 11 13 7 3 4 5 1 3 10 10 8 3 3 7
19 18 17 17 16 14 5 3 5 2 4 5 4 7 4 4 4 5 6 8 6 3 4 4 3 4 4 4 6 4 1 4 12 8 5 7 5 8 7 6 1 8 7 9
19 18 18 18 15 13 5 3 7 4 4 7 9 7 6 6 4 2 5 8 4 4 6 4 3 3 4 4 3 5 3 2 3 4 5 7 10 11 6 4 6 7 9 7
19 18 19 19 17 15 9 3 2 4 4 7 14 21 23 23 19 4 3 3 3 3 2 2 3 3 3 5 3 1 3 2 3 3 3 7 11 14 18 18 14 5 6 8
19 19 18 18 18 16 9 3 3 2 3 7 3 8 5 7 18 16 5 3 3 3 2 2 2 5 2 3 3 4 3 5 3 3 4 8 11 18 7 6 13 10 11 7
20 19 19 19 17 16 12 3 2 2 2 4 8 3 8 6 8 15 19 2 1 0 1 2 2 4 4 3 4 3 4 5 5 4 5 8 7 18 13 16 17 18 17 14
21 20 19 18 17 17 10 6 6 7 4 3 7 11 6 4 6 10 16 7 3 2 1 3 3 3 3 2 2 3 3 4 4 3 8 7 8 13 15 19 17 16 16 16
23 22 21 18 17 13 3 4 1 4 4 1 5 5 5 3 2 7 11 6 3 2 2 3 3 5 2 2 3 5 4 5 3 3 5 4 6 9 11 13 16 15 15 15
24 23 22 20 16 4 3 2 2 3 3 2 4 5 4 1 2 2 3 3 2 2 2 3 3 3 2 1 3 5 7 7 7 9 4 5 7 5 7 8 9 11 13 15
24 24 22 19 12 6 4 6 11 6 3 3 3 5 5 2 1 2 2 3 3 3 2 2 3 4 1 3 6 5 6 6 8 9 7 2 6 10 9 8 10 13 11 12
26 21 6 3 2 2 2 6 8 7 2 3 3 2 5 4 2 2 1 2 3 2 3 3 2 2 4 6 4 2 4 4 5 6 7 8 10 10 11 11 11 10 10 9
20 5 2 2 1 13 8 4 3 4 5 4 4 2 4 1 1 2 1 1 2 2 4 1 2 5 5 4 5 2 3 5 4 6 7 7 8 9 10 10 9 8 6 8
5 5 3 4 12 2 1 2 3 2 3 4 3 4 3 2 3 4 1 2 1 2 2 1 3 4 4 3 3 1 3 5 5 6 5 5 4 6 6 9 11 10 12 11
6 7 6 4 2 2 1 4 3 4 5 3 3 4 5 4 1 1 1 2 2 4 3 1 4 5 3 4 4 3 5 6 5 4 7 7 6 6 5 6 8 9 9 9
2 4 3 2 2 3 5 5 3 2 2 1 3 4 4 1 2 1 3 2 4 2 3 4 6 3 3 4 4 3 2 4 5 5 6 7 7 6 6 6 6 7 8 9
3 3 5 4 5 5 5 4 2 3 4 5 3 4 4 2 2 2 3 3 3 3 2 6 4 4 5 4 4 6 5 5 5 5 5 7 8 7 7 7 7 7 9 9
3 3 6 6 5 4 3 2 2 3 4 3 5 2 2 2 3 2 2 2 3 6 7 5 4 5 5 6 5 6 6 6 4 5 5 7 7 8 7 5 6 7 8 10
3 5 5 4 2 4 2 2 3 3 3 3 2 1 2 4 2 3 6 6 6 6 5 4 3 5 4 6 5 6 6 5 4 5 4 5 7 8 7 6 7 7 8 10
4 5 4 6 4 6 4 3 4 1 2 2 2 2 6 2 3 3 4 6 5 5 4 4 5 7 6 6 4 5 6 7 5 5 5 5 7 8 8 8 4 6 8 8
Wind_Direction
349 350 351 345 348 345 7 8 44 314 27 48 66 32 309 296 283 292 279 279 253 246 291 277 267 250 216 337 319 306 6 301 277 263 274 333 6 293 254 194 244 265 123 284
339 347 347 347 346 356 324 2 292 321 69 74 334 303 298 276 302 314 292 275 259 13 296 293 261 274 304 333 294 251 218 257 312 326 12 37 360 315 268 218 317 216 222 247
337 339 342 343 339 351 327 9 355 331 39 88 126 305 315 296 288 281 299 274 276 299 265 235 271 264 297 273 260 274 256 204 213 212 229 165 292 294 306 220 252 264 243 301
337 338 337 344 339 345 76 26 323 237 306 320 314 268 279 281 304 279 263 263 228 294 292 288 264 266 272 268 271 43 153 240 231 260 273 279 256 266 276 270 252 253 315 267
334 339 334 338 345 344 67 49 22 352 286 285 277 273 266 289 318 305 299 256 306 300 279 273 286 282 257 255 203 184 184 244 305 287 258 249 264 263 249 254 254 259 257 270
330 333 331 334 346 7 20 347 340 112 278 295 5 250 301 307 313 278 269 290 299 292 287 293 282 269 265 246 216 199 176 207 185 254 242 300 273 252 248 247 223 216 233 244
336 334 330 326 331 210 207 180 162 271 274 258 230 283 291 287 290 281 281 292 287 269 313 300 273 254 250 242 225 208 208 181 185 263 17 256 246 314 296 230 224 218 231 243
336 332 329 321 323 329 190 168 181 233 269 255 290 283 280 297 282 277 278 284 273 317 313 317 326 340 208 191 227 205 203 188 245 233 212 286 290 27 11 346 279 237 239 262
328 327 325 321 321 316 236 202 175 183 275 245 280 309 279 283 304 284 279 307 288 347 10 327 329 314 291 326 298 352 192 209 208 169 237 266 229 33 343 322 259 180 244 272
322 324 321 319 316 317 302 227 179 201 258 255 196 281 275 293 279 276 293 327 324 26 8 342 331 296 335 330 326 331 180 182 219 226 252 278 47 334 315 236 224 321 324 290
320 319 317 320 309 310 313 262 186 192 236 268 240 245 226 273 214 252 324 332 338 334 3 340 327 294 310 297 279 312 305 294 207 214 227 250 12 322 236 14 310 320 303 283
317 316 315 314 321 310 297 263 190 213 248 267 286 268 259 247 242 319 268 275 285 240 329 302 294 296 294 306 294 357 301 255 288 265 307 316 298 263 261 257 265 309 302 310
320 318 314 310 311 319 326 243 182 204 261 275 321 262 270 218 220 210 206 259 219 245 207 297 280 278 279 304 315 289 260 211 239 302 230 284 316 307 332 59 39 24 18 6
318 313 309 307 305 307 309 272 211 183 292 279 279 288 273 204 179 189 209 165 67 74 144 248 250 267 202 281 297 291 250 295 284 257 268 332 354 331 10 33 30 31 17 18
318 315 309 306 307 307 304 263 234 202 199 284 290 304 258 287 189 186 194 194 162 212 234 230 246 257 271 248 284 267 317 301 346 333 345 336 7 336 17 21 22 21 13 9
315 311 308 303 300 303 290 302 191 199 168 252 287 289 291 333 129 156 166 179 184 206 246 237 265 252 231 310 281 265 288 305 263 302 305 342 318 360 31 39 3 14 12 356
311 304 300 296 288 260 216 223 3 141 109 246 270 297 272 339 123 154 143 145 198 202 244 239 248 281 223 195 262 291 323 318 0 12 10 24 24 17 40 65 37 8 10 358
307 305 301 293 260 214 241 244 227 161 215 234 276 276 332 183 28 298 152 172 188 200 260 279 240 312 2 258 256 298 315 341 28 27 36 8 45 40 38 43 48 37 359 349
317 313 316 95 84 170 224 301 198 188 255 286 209 243 265 342 235 217 250 221 234 134 227 250 133 302 240 220 234 310 348 9 341 31 40 22 38 34 27 29 36 37 11 352
328 6 316 171 95 317 304 189 185 158 202 223 252 162 267 68 336 286 86 325 277 269 230 199 185 259 268 248 225 262 350 10 63 66 36 25 28 33 16 25 25 23 355 16
6 4 340 303 309 300 229 227 204 135 249 229 245 215 229 266 184 233 141 243 280 293 293 353 298 279 248 233 224 278 117 113 94 110 109 83 83 78 36 20 27 22 16 8
261 286 287 274 293 303 210 220 192 196 233 194 198 225 198 264 164 125 200 185 37 251 333 33 274 259 229 174 172 118 141 128 106 68 71 65 76 80 68 33 22 26 23 15
304 202 236 230 230 249 211 220 217 212 187 108 278 248 211 206 151 172 93 110 235 12 38 241 234 255 251 168 119 113 159 140 112 96 86 86 97 80 68 53 28 30 33 28
272 253 257 208 219 239 204 203 174 72 270 286 285 279 186 153 163 167 152 210 69 13 304 240 249 225 199 173 151 137 173 166 143 115 86 97 101 84 55 39 44 49 38 35
258 256 240 237 234 270 268 259 300 250 267 332 321 247 202 158 220 219 110 140 249 204 231 236 242 217 186 160 151 162 161 179 177 151 131 114 115 106 89 62 42 53 54 48
232 237 256 265 320 291 333 315 281 291 318 305 236 280 284 236 181 187 214 145 220 247 221 238 265 215 170 154 171 173 173 180 169 159 125 118 116 115 104 81 69 54 63 62
243 251 228 251 261 249 249 219 246 256 337 258 142 216 224 162 239 249 174 205 224 228 242 219 213 216 169 182 177 171 181 162 170 131 131 113 118 119 109 100 84 78 63 56